AZU4089 SBRF-SBSP

Flight info

Callsign AZU4089
Flight time N/A
Altitude 38000
Route GAVAK UZ30 ENTIT
Aircraft A20N/M-SDE2E3FGHIRWXY/LB1

Departure

Time 2026-05-06 13:18
Airport Recife/Guararapes - Gilberto Freyre International Airport (SBRF)

Arrival

Time N/A
Airport Congonhas–Deputado Freitas Nobre Airport (SBSP)
Time Latitude Longitude Altitude Speed Heading
2026-05-06 12:34 -8.12949 -34.92454 37 ft 0 kts 252°
2026-05-06 13:04 -8.12947 -34.92450 37 ft 3 kts 253°
2026-05-06 13:04 -8.12941 -34.92429 35 ft 3 kts 257°
2026-05-06 13:04 -8.12937 -34.92408 37 ft 3 kts 264°
2026-05-06 13:05 -8.12936 -34.92386 37 ft 3 kts 282°
2026-05-06 13:05 -8.12943 -34.92369 35 ft 3 kts 328°
2026-05-06 13:05 -8.12952 -34.92364 35 ft 0 kts 341°
2026-05-06 13:11 -8.12931 -34.92372 37 ft 6 kts 341°
2026-05-06 13:12 -8.12878 -34.92389 37 ft 10 kts 341°
2026-05-06 13:12 -8.12802 -34.92414 34 ft 13 kts 343°
2026-05-06 13:12 -8.12701 -34.92448 34 ft 17 kts 341°
2026-05-06 13:12 -8.12578 -34.92490 36 ft 20 kts 341°
2026-05-06 13:13 -8.12434 -34.92537 35 ft 21 kts 340°
2026-05-06 13:13 -8.12362 -34.92556 35 ft 10 kts 17°
2026-05-06 13:13 -8.12360 -34.92492 34 ft 10 kts 121°
2026-05-06 13:13 -8.12404 -34.92431 36 ft 11 kts 126°
2026-05-06 13:14 -8.12453 -34.92364 35 ft 13 kts 126°
2026-05-06 13:14 -8.12506 -34.92287 36 ft 13 kts 123°
2026-05-06 13:14 -8.12488 -34.92219 36 ft 13 kts 359°
2026-05-06 13:14 -8.12390 -34.92250 35 ft 17 kts 344°
2026-05-06 13:15 -8.12268 -34.92288 35 ft 20 kts 341°
2026-05-06 13:15 -8.12125 -34.92335 33 ft 23 kts 342°
2026-05-06 13:15 -8.11959 -34.92390 33 ft 26 kts 341°
2026-05-06 13:15 -8.11777 -34.92450 32 ft 29 kts 342°
2026-05-06 13:16 -8.11612 -34.92515 32 ft 22 kts 328°
2026-05-06 13:16 -8.11496 -34.92606 32 ft 18 kts 316°
2026-05-06 13:16 -8.11455 -34.92687 32 ft 12 kts 234°
2026-05-06 13:16 -8.11516 -34.92686 31 ft 0 kts 163°
2026-05-06 13:17 -8.11517 -34.92686 31 ft 1 kts 163°
2026-05-06 13:17 -8.11604 -34.92660 31 ft 40 kts 163°
2026-05-06 13:17 -8.12088 -34.92494 31 ft 104 kts 162°
2026-05-06 13:18 -8.12921 -34.92211 62 ft 150 kts 159°
2026-05-06 13:18 -8.13940 -34.91867 671 ft 158 kts 159°
2026-05-06 13:18 -8.15055 -34.91516 1156 ft 182 kts 160°
2026-05-06 13:18 -8.16358 -34.91323 1842 ft 196 kts 181°
2026-05-06 13:19 -8.17664 -34.91731 2469 ft 205 kts 207°
2026-05-06 13:19 -8.18664 -34.92819 3041 ft 222 kts 236°
2026-05-06 13:19 -8.19221 -34.94346 3476 ft 247 kts 252°
2026-05-06 13:19 -8.19686 -34.96151 3671 ft 281 kts 252°
2026-05-06 13:20 -8.20215 -34.98062 4597 ft 281 kts 250°
2026-05-06 13:20 -8.20807 -34.99943 5343 ft 283 kts 248°
2026-05-06 13:20 -8.21458 -35.01823 5731 ft 284 kts 247°
2026-05-06 13:20 -8.22147 -35.03701 5934 ft 285 kts 246°
2026-05-06 13:21 -8.22853 -35.05576 6016 ft 290 kts 246°
2026-05-06 13:21 -8.23572 -35.07467 6025 ft 285 kts 246°
2026-05-06 13:21 -8.24284 -35.09343 6042 ft 289 kts 246°
2026-05-06 13:21 -8.24996 -35.11231 6031 ft 286 kts 246°
2026-05-06 13:22 -8.25702 -35.13102 6030 ft 284 kts 246°
2026-05-06 13:22 -8.26403 -35.14932 6036 ft 286 kts 244°
2026-05-06 13:22 -8.27344 -35.16680 6032 ft 281 kts 232°
2026-05-06 13:22 -8.28550 -35.18226 6128 ft 283 kts 226°
2026-05-06 13:23 -8.29810 -35.19772 6734 ft 287 kts 227°
2026-05-06 13:23 -8.31070 -35.21338 8018 ft 285 kts 230°
2026-05-06 13:23 -8.32323 -35.22896 8605 ft 291 kts 227°
2026-05-06 13:23 -8.33630 -35.24524 9265 ft 298 kts 230°
2026-05-06 13:24 -8.34948 -35.26176 10205 ft 311 kts 228°
2026-05-06 13:24 -8.36309 -35.27862 10440 ft 320 kts 230°
2026-05-06 13:24 -8.37761 -35.29669 11004 ft 341 kts 230°
2026-05-06 13:24 -8.39306 -35.31606 10966 ft 359 kts 227°
2026-05-06 13:25 -8.40884 -35.33589 11580 ft 363 kts 227°
2026-05-06 13:25 -8.42472 -35.35577 12404 ft 364 kts 229°
2026-05-06 13:25 -8.44068 -35.37571 13151 ft 367 kts 229°
2026-05-06 13:25 -8.45684 -35.39585 13882 ft 370 kts 230°
2026-05-06 13:26 -8.47288 -35.41586 14502 ft 373 kts 230°
2026-05-06 13:26 -8.48950 -35.43660 15134 ft 377 kts 230°
2026-05-06 13:26 -8.50580 -35.45694 15786 ft 379 kts 230°
2026-05-06 13:26 -8.52245 -35.47773 16413 ft 381 kts 230°
2026-05-06 13:27 -8.53920 -35.49866 17011 ft 384 kts 230°
2026-05-06 13:27 -8.55607 -35.51974 17595 ft 387 kts 231°
2026-05-06 13:27 -8.57304 -35.54093 18229 ft 389 kts 231°
2026-05-06 13:27 -8.59017 -35.56235 18741 ft 392 kts 231°
2026-05-06 13:28 -8.60739 -35.58386 19218 ft 396 kts 231°
2026-05-06 13:28 -8.62475 -35.60557 19705 ft 399 kts 231°
2026-05-06 13:28 -8.64221 -35.62739 20213 ft 401 kts 231°
2026-05-06 13:28 -8.65988 -35.64947 20670 ft 405 kts 232°
2026-05-06 13:29 -8.67765 -35.67169 21152 ft 408 kts 232°
2026-05-06 13:29 -8.69554 -35.69407 21629 ft 411 kts 232°
2026-05-06 13:29 -8.71361 -35.71668 22105 ft 415 kts 232°
2026-05-06 13:29 -8.73182 -35.73946 22578 ft 418 kts 232°
2026-05-06 13:30 -8.75012 -35.76238 23062 ft 421 kts 232°
2026-05-06 13:30 -8.76863 -35.78555 23457 ft 426 kts 232°
2026-05-06 13:30 -8.78729 -35.80890 23909 ft 428 kts 232°
2026-05-06 13:30 -8.80601 -35.83236 24384 ft 428 kts 232°
2026-05-06 13:31 -8.82473 -35.85581 24857 ft 429 kts 233°
2026-05-06 13:31 -8.84350 -35.87932 25286 ft 431 kts 233°
2026-05-06 13:31 -8.86237 -35.90298 25701 ft 432 kts 233°
2026-05-06 13:31 -8.88125 -35.92665 26109 ft 434 kts 233°
2026-05-06 13:32 -8.90022 -35.95042 26514 ft 435 kts 233°
2026-05-06 13:32 -8.91926 -35.97430 26907 ft 436 kts 233°
2026-05-06 13:32 -8.93831 -35.99819 27287 ft 438 kts 233°
2026-05-06 13:32 -8.95745 -36.02219 27733 ft 437 kts 233°
2026-05-06 13:33 -8.97653 -36.04614 28121 ft 438 kts 233°
2026-05-06 13:33 -8.99567 -36.07017 28465 ft 440 kts 233°
2026-05-06 13:33 -9.01491 -36.09432 28813 ft 441 kts 233°
2026-05-06 13:33 -9.03420 -36.11853 29172 ft 442 kts 233°
2026-05-06 13:34 -9.05357 -36.14277 29489 ft 444 kts 232°
2026-05-06 13:34 -9.07339 -36.16675 29811 ft 446 kts 232°
2026-05-06 13:34 -9.09328 -36.19045 30142 ft 447 kts 232°
2026-05-06 13:34 -9.11370 -36.21476 30443 ft 448 kts 232°
2026-05-06 13:35 -9.13384 -36.23882 30732 ft 449 kts 232°
2026-05-06 13:35 -9.15401 -36.26299 31031 ft 450 kts 232°
2026-05-06 13:35 -9.17422 -36.28725 31408 ft 449 kts 232°
2026-05-06 13:35 -9.19400 -36.31102 31809 ft 447 kts 232°
2026-05-06 13:36 -9.21402 -36.33509 32224 ft 445 kts 232°
2026-05-06 13:36 -9.23410 -36.35923 32632 ft 442 kts 232°
2026-05-06 13:36 -9.25386 -36.38299 33049 ft 439 kts 232°
2026-05-06 13:36 -9.27321 -36.40626 33427 ft 437 kts 232°
2026-05-06 13:37 -9.29275 -36.42977 33807 ft 435 kts 232°
2026-05-06 13:37 -9.31219 -36.45315 34171 ft 432 kts 233°
2026-05-06 13:37 -9.33153 -36.47644 34451 ft 431 kts 233°
2026-05-06 13:37 -9.35104 -36.49993 34719 ft 430 kts 233°
2026-05-06 13:38 -9.37001 -36.52278 34959 ft 429 kts 233°
2026-05-06 13:38 -9.38922 -36.54591 35206 ft 428 kts 233°
2026-05-06 13:38 -9.40836 -36.56898 35452 ft 428 kts 233°